Location: Juign�
(47.4000°N, 0.4833°W)
Time: 21:14:14
(UTC+02:00)

ISS - Visible Passes

Search period start: 13 May 2021 00:00
Search period end: 23 May 2021 00:00
Orbit: 417 x 422 km, 51.6° (Epoch: 13 May)

Date Brightness Start Highest point End Pass type
(mag) Time Alt. Az. Time Alt. Az. Time Alt. Az.
13 May -2.1 02:05:02 32° NE 02:05:02 32° NE 02:07:10 10° ENE visible
13 May -2.4 03:37:57 10° WNW 03:41:06 41° N 03:44:20 10° E visible
13 May -3.8 05:14:43 10° WNW 05:18:07 77° SSW 05:21:29 10° ESE visible
14 May -1.5 01:18:38 19° ENE 01:18:38 19° ENE 01:19:43 10° ENE visible
14 May -2.3 02:51:31 19° WNW 02:53:33 38° N 02:56:46 10° ENE visible
14 May -3.6 04:27:17 10° WNW 04:30:40 77° NNE 04:34:03 10° ESE visible
14 May -2.6 22:49:38 10° SSW 22:52:20 23° SE 22:55:03 10° E visible
15 May -3.7 00:25:31 10° WSW 00:28:53 75° NNW 00:32:16 10° ENE visible
15 May -2.3 02:02:48 10° WNW 02:06:00 38° N 02:09:12 10° ENE visible
15 May -3.2 03:39:50 10° WNW 03:43:11 58° NNE 03:46:32 10° E visible
15 May -3.1 05:16:48 10° WNW 05:19:53 34° SW 05:22:59 10° SSE visible
15 May -3.9 23:38:04 10° WSW 23:41:26 79° SSE 23:44:49 10° ENE visible
16 May -2.4 01:15:14 10° W 01:18:27 41° N 01:21:41 10° ENE visible
16 May -2.7 02:52:23 10° WNW 02:55:40 47° NNE 02:58:57 10° E visible
16 May -3.7 04:29:15 10° WNW 04:32:32 51° SSW 04:35:50 10° SE visible
16 May -3.7 22:50:45 10° SW 22:54:01 53° SSE 22:57:19 10° ENE visible
17 May -2.7 00:27:39 10° W 00:30:54 46° NNW 00:34:11 10° ENE visible
17 May -2.5 02:04:54 10° WNW 02:08:08 41° N 02:11:22 10° E visible
17 May -3.9 03:41:45 10° WNW 03:45:08 76° SSW 03:48:31 10° ESE visible
17 May -2.0 05:19:32 10° W 05:21:29 15° SW 05:23:25 10° S visible
17 May -3.1 23:40:04 10° W 23:43:23 57° NNW 23:46:43 10° ENE visible
18 May -2.3 01:17:22 10° WNW 01:20:34 38° N 01:22:54 16° ENE visible
18 May -2.0 02:54:18 10° WNW 02:55:48 24° WNW 02:55:48 24° WNW visible
18 May -3.6 22:52:32 10° WSW 22:55:53 75° NNW 22:59:16 10° ENE visible
19 May -2.3 00:29:49 10° WNW 00:33:00 38° N 00:36:12 10° ENE visible
19 May -2.7 02:06:51 10° WNW 02:09:24 44° NW 02:09:24 44° NW visible
19 May -2.4 23:42:14 10° W 23:45:26 40° N 23:48:40 10° ENE visible
20 May -2.8 01:19:23 10° WNW 01:22:40 47° NNE 01:23:14 42° NE visible
20 May -2.6 22:54:37 10° W 22:57:53 46° NNW 23:01:10 10° ENE visible
21 May -2.5 00:31:53 10° WNW 00:35:07 41° N 00:37:08 19° ENE visible
21 May -1.8 02:08:44 10° WNW 02:10:05 22° WNW 02:10:05 22° WNW visible
21 May -2.3 23:44:21 10° WNW 23:47:33 38° N 23:50:44 10° ENE visible
22 May -3.2 01:21:16 10° WNW 01:24:02 55° NW 01:24:02 55° NW visible
22 May -2.3 22:56:47 10° WNW 22:59:58 38° N 23:03:10 10° ENE visible
